Location: Newark
(56.0692°N, 115.8617°E)
Time: 12:30:00
(UTC+00:00)

Vanguard 2 Rocket - Pass Details

Date: 26 May 2020
Orbit: 556 x 3325 km, 32.9° (Epoch: 14 July)

Event Time Altitude Azimuth Distance (km) Brightness Sun altitude
Rises 12:00:46 0° 253° (WSW) 5,677 11.6 3.8°
Reaches altitude 10° 12:04:52 10° 242° (WSW) 5,052 11.1 3.3°
Maximum altitude 12:16:56 28° 192° (SSW) 4,533 10.3 2.0°
Drops below altitude 10° 12:31:54 10° 144° (SE) 6,280 10.5 0.3°
Enters shadow 12:37:42 - 134° (SE) 7,227 10.8 -0.3°
Sets 12:37:52 0° 134° (SE) 7,257 - -0.3°
